TIME,DELAY(SENSOR),PRES,T(CTD),SAL,OXYGEN,RAWTEMP,T(OPTODE),TCPHASE,FLUOR,BETA(BETA700),BETA(BETA412),BETA(BETA440),CDOM,C(CSC),ED(ED411.90),ED(ED443.80),ED(ED489.40),ED(ED554.70),LU(LU412.20),LU(LU443.80),LU(LU489.40),LU(LU555.00),COMP,TILTX,TILTX(TILTY),CHECK
1349277617,5805,497.1000061035156000,17.1861991882324220,36.4003982543945300,223.0469055175781200,196.5023956298828000,17.1880702972412100,32.4662895202636700,50,106,75,82,64,9003,2147486189,2147768173,2147560585,2147793837,2147314057,2147473024,2147716187,2148249243,685,7,13,55655
1349277735,5806,486.7699890136719000,17.2971000671386720,36.4262008666992200,227.4199981689453000,192.9821929931640600,17.2951602935791000,32.1949806213378900,49,105,78,83,63,9006,2147490870,2147765440,2147560265,2147793545,2147315044,2147475766,2147713709,2148247259,21,7,12,33879
1349277874,5804,474.8399963378906000,17.3903007507324220,36.4412994384765600,228.5805969238281200,190.0231018066406200,17.3851890563964840,32.0959701538085940,50,106,76,84,63,9012,2147484132,2147768777,2147557686,2147794212,2147311670,2147470134,2147709586,2148245348,3452,7,12,52509
1349278015,5803,462.9400024414062500,17.4773006439209000,36.4569015502929700,228.3621978759765600,186.9754943847656200,17.4779090881347660,32.0653610229492200,50,104,76,83,62,9018,2147484672,2147767405,2147559451,2147792054,2147314249,2147474788,2147712301,2148242395,3469,7,12,1417
1349278142,5800,452.3099975585937500,17.5744991302490230,36.4757995605468750,229.5608062744140600,183.7234039306640600,17.5768795013427730,31.9612102508544920,50,105,74,83,63,9023,2147485970,2147770185,2147560256,2147794761,2147318354,2147471177,2147708443,2148245604,2686,7,13,4533
1349278269,5802,441.7200012207031000,17.6856002807617200,36.4968986511230500,231.8760986328125000,180.2062072753906200,17.6839199066162100,31.7989501953125000,50,105,75,82,63,9026,2147484845,2147765275,2147559323,2147793609,2147314057,2147474112,2147710921,2148246016,2210,7,12,20760
1349278399,5804,430.7099914550781000,17.7656993865966800,36.5121994018554700,233.4096069335937500,177.5930023193359400,17.7634601593017580,31.6886405944824220,50,105,75,83,63,9035,2147489161,2147765193,2147559689,2147796169,2147314770,2147476836,2147706084,2148245019,2432,7,13,52090
1349278538,5803,418.8699951171875000,17.8404998779296880,36.5267982482910160,235.2707061767578000,175.1506042480468800,17.8378105163574220,31.5654792785644530,50,106,76,82,61,9040,2147486308,2147766875,2147556534,2147792512,2147316105,2147477449,2147706386,2148244205,2694,7,13,29770
1349278667,5804,407.9800109863281000,17.8736000061035160,36.5323982238769500,236.0204925537109400,173.7812042236328000,17.8794994354248050,31.5110206604003900,49,106,76,82,63,9047,2147487168,2147762203,2147561124,2147794779,2147311213,2147474240,2147711259,2148244553,2180,7,12,10648
1349278794,5805,397.3200073242187500,17.9379997253417970,36.5434989929199200,236.2536010742187500,171.9600067138672000,17.9349498748779300,31.4753704071044920,50,104,76,84,63,9047,2147488969,2147761782,2147560000,2147791698,2147315730,2147477440,2147705682,2148240832,2164,7,12,28844
1349278921,5801,386.6199951171875000,17.9908008575439450,36.5526008605957000,237.0298004150390600,170.2225036621093800,17.9878597259521500,31.4150199890136720,49,105,76,83,63,9049,2147489536,2147763090,2147561938,2147793691,2147305956,2147475721,2147708489,2148242368,2241,7,13,61051
1349279051,5802,375.7300109863281000,18.0139999389648440,36.5526008605957000,235.8789062500000000,169.5536041259765600,18.0082206726074220,31.4608497619628900,50,106,76,83,63,9053,2147488182,2147766436,2147558646,2147792118,2147316425,2147475940,2147705846,2148242934,2451,7,12,60637
1349279190,5803,364.1300048828125000,18.0580005645751950,36.5591011047363300,235.3849029541015600,167.9812011718750000,18.0561103820800780,31.4633598327636720,50,106,75,83,63,9055,2147491227,2147767606,2147561097,2147790061,2147315008,2147471360,2147710281,2148243209,2268,7,12,36148
1349279319,5802,353.4800109863281000,18.0942001342773440,36.5634994506835940,235.0505065917968800,166.8166046142578000,18.0915699005126950,31.4636306762695300,50,105,76,84,62,9060,2147486299,2147765878,2147562925,2147790089,2147315894,2147477202,2147709001,2148247204,1919,7,12,14810
1349279458,5803,342.1499938964844000,18.1424999237060550,36.5704002380371100,235.0182037353515600,165.1356964111328000,18.1427707672119140,31.4427299499511720,50,106,76,84,62,9065,2147489920,2147764306,2147564964,2147791981,2147309961,2147473124,2147711835,2148239552,1303,7,12,60481
1349279587,5802,331.8900146484375000,18.2050991058349600,36.5752983093261700,234.0426025390625000,163.2135009765625000,18.2013206481933600,31.4637794494628900,50,107,75,84,63,9064,2147489764,2147768393,2147568832,2147789961,2147305764,2147477174,2147711881,2148242715,989,7,12,1876
1349279738,5804,320.1900024414062500,18.2772998809814450,36.5866012573242200,233.8460998535156200,160.8970031738281200,18.2718906402587900,31.4421806335449220,50,107,75,84,63,9073,2147489206,2147765056,2147562514,2147789467,2147314523,2147480722,2147710656,2148239387,3452,7,12,43726
1349279877,5804,309.6799926757812500,18.3138008117675780,36.5870018005371100,233.0303039550781200,159.6576995849609400,18.3096504211425780,31.4651393890380860,49,107,76,82,63,9076,2147490075,2147766445,2147562486,2147786989,2147317732,2147479094,2147706057,2148241353,2708,7,12,2141
1349280013,5803,297.6600036621094000,18.3875007629394530,36.5938987731933600,231.7476043701172000,156.9149932861328000,18.3932209014892580,31.4904499053955080,49,106,76,83,63,9081,2147493860,2147768740,2147586176,2147789056,2147307785,2147480630,2147720603,2148241636,2325,7,12,36804
1349280116,5805,287.3699951171875000,18.4603004455566400,36.6007995605468750,230.6174011230468800,154.6782989501953000,18.4613800048828120,31.5158004760742200,49,106,74,83,62,9086,2147488420,2147774226,2147597686,2147788763,2147317321,2147487076,2147730166,2148243739,2547,7,12,31482
1349280231,5801,275.6400146484375000,18.5834999084472660,36.6083984375000000,228.8450012207031200,150.6851959228515600,18.5830993652343750,31.5496807098388670,50,106,76,83,63,9093,2147492955,2147780882,2147611099,2147788205,2147314660,2147489334,2147736192,2148241974,1936,7,12,63029
1349280337,5803,264.8999938964844000,18.6753997802734380,36.6138992309570300,228.2845001220703000,147.2942962646484400,18.6864795684814450,31.5317897796630860,50,107,75,83,63,9097,2147493686,2147784713,2147629769,2147789787,2147316242,2147497206,2147750226,2148242560,1642,6,12,6088
1349280452,5805,253.3800048828125000,18.8052005767822270,36.6136016845703100,228.0381011962890600,143.6802062988281200,18.7966995239257800,31.4956607818603500,50,106,75,83,61,9096,2147498020,2147796105,2147663634,2147791250,2147319222,2147500352,2147764571,2148244946,945,7,12,1703
1349280567,5803,242.2400054931640600,18.9155006408691400,36.6139984130859400,228.7642059326172000,139.7866973876953000,18.9154701232910160,31.4075202941894530,50,105,76,83,63,9095,2147493842,2147803328,2147665801,2147791259,2147309924,2147502473,2147766043,2148244882,485,7,12,41487
1349280685,5805,231.2100067138672000,19.0221996307373050,36.6116981506347660,231.0744018554687500,136.3811950683593800,19.0193805694580080,31.2491092681884770,50,105,76,82,63,9096,2147490870,2147828507,2147740973,2147788324,2147312173,2147523053,2147815533,2148246345,548,7,12,30691
1349280812,5804,220.0000000000000000,19.0503997802734380,36.5829010009765600,237.7471008300781200,134.1790008544922000,19.0865898132324220,30.9007606506347660,50,107,75,82,62,9100,2147503369,2147880978,2147874322,2147789988,2147315273,2147554340,2147885293,2148253421,447,7,12,54806
1349280941,5803,209.3200073242187500,19.1919002532959000,36.5817985534668000,243.8686981201172000,130.7097015380859400,19.1924991607666000,30.5719203948974600,50,106,76,82,62,9101,2147505508,2147918299,2147955254,2147789147,2147317458,2147577307,2147938313,2148251318,190,7,12,21088
1349281080,5800,198.0200042724609400,19.2772998809814450,36.5825004577636700,248.5335998535156200,127.9391021728515600,19.2770900726318360,30.3256492614746100,51,109,76,81,61,9103,2147518774,2147967771,2148060150,2147789476,2147319954,2147612123,2147996736,2148257746,3320,7,12,17321
1349281135,5804,193.5599975585937500,19.3043994903564450,36.5859985351562500,248.7967987060547000,127.1298980712890600,19.3018093109130860,30.3033008575439450,51,109,76,84,62,9104,2147526070,2147989513,2148114432,2147789412,2147319195,2147633316,2148028754,2148260461,3353,7,12,55862
1349281190,5804,189.1199951171875000,19.3253002166748050,36.5867996215820300,248.7756042480468800,126.3496017456054700,19.3256397247314450,30.2943305969238280,52,108,76,83,61,9103,2147528832,2148017910,2148183122,2147789668,2147321097,2147652361,2148069485,2148260050,3408,7,12,18812
1349281265,5802,183.4900054931640600,19.3495998382568360,36.5801010131835940,249.7033996582031200,125.6872024536132800,19.3458690643310550,30.2444400787353500,52,111,76,85,60,9104,2147541833,2148070427,2148278363,2147789586,2147331072,2147677760,2148118290,2148262857,3592,7,12,15244
1349281320,5803,179.7200012207031200,19.3507995605468750,36.5773010253906250,249.5738983154297000,125.5478973388671900,19.3501205444335940,30.2483196258544920,50,107,77,82,60,9106,2147545819,2148104804,2148359296,2147789787,2147331785,2147702034,2148164818,2148265170,3239,7,12,11596
1349281375,5804,175.9799957275390600,19.3710002899169920,36.5769996643066400,249.7250061035156200,124.9524993896484400,19.3683109283447270,30.2339591979980470,50,109,75,82,61,9104,2147557312,2148154148,2148449572,2147787419,2147341668,2147731574,2148216886,2148268964,2555,7,12,19204
1349281430,5803,172.2400054931640600,19.3915004730224600,36.5801010131835940,249.3972930908203000,124.4334030151367200,19.3841705322265620,30.2418403625488280,51,108,74,83,62,9104,2147572370,2148201545,2148555291,2147785993,2147340992,2147761828,2148276397,2148272941,2287,7,12,31532
1349281497,5802,167.5299987792968800,19.4130992889404300,36.5778999328613300,249.7767944335937500,123.4458999633789000,19.4143295288085940,30.2119808197021500,50,109,76,84,61,9106,2147589997,2148279122,2148699712,2147789796,2147345654,2147809024,2148351241,2148278299,2514,7,12,14070
1349281576,5805,162.4900054931640600,19.4605007171630860,36.5817985534668000,249.8345947265625000,121.9391021728515600,19.4603691101074220,30.1899299621582030,51,110,76,83,61,9103,2147613705,2148366482,2148873810,2147788973,2147368054,2147860534,2148449545,2148283483,2690,7,12,24467
1349281655,5805,158.1300048828125000,19.5030994415283200,36.5859985351562500,249.4770050048828000,120.6436996459961000,19.4999504089355470,30.1888904571533200,52,107,76,84,61,9107,2147638957,2148462418,2149041462,2147792640,2147366784,2147923538,2148551725,2148289846,2698,7,13,29952
1349281722,5805,154.4799957275390600,19.5494003295898440,36.5923995971679700,249.4053955078125000,118.7773971557617200,19.5569801330566400,30.1679000854492200,52,107,76,83,62,9109,2147664548,2148558582,2149232283,2147793462,2147382006,2147972818,2148652507,2148297152,2549,7,12,15609
1349281801,5802,150.2200012207031200,19.6427001953125000,36.6002006530761700,249.2496032714843800,116.2268981933593800,19.6349391937255860,30.1417808532714840,56,108,77,84,61,9109,2147709787,2148698395,2149493202,2147794368,2147408374,2148062235,2148790738,2148304301,2048,7,12,55778
1349281871,5802,146.5800018310547000,19.6629009246826170,36.6012001037597660,249.5101928710937500,115.4798965454101600,19.6577796936035160,30.1206607818603500,54,110,76,84,62,9113,2147758016,2148832813,2149721545,2147797888,2147433508,2148130486,2148906422,2148317321,2329,8,12,21154
1349281950,5803,142.6000061035156200,19.7658996582031250,36.6170005798339840,248.0935058593750000,112.1976013183593800,19.7581405639648440,30.1408195495605470,55,110,76,83,62,9109,2147818980,2148997092,2150000667,2147798884,2147453357,2148224219,2149046793,2148326272,2964,7,12,15653
1349282041,5803,138.3699951171875000,19.8157997131347660,36.6236991882324200,246.2165985107422000,110.4578018188476600,19.8113498687744140,30.2021293640136720,56,110,76,84,62,9110,2147907977,2149225307,2150395501,2147800539,2147497097,2148353526,2149259574,2148339702,2326,7,13,22287
1349282120,5805,134.6499938964843800,19.8962993621826170,36.6341018676757800,244.4821929931640600,107.8671035766601600,19.8906097412109380,30.2464199066162100,53,110,77,82,63,9117,2147984630,2149405796,2150687506,2147800429,2147532160,2148466733,2149434925,2148356260,1811,7,12,204
1349282214,5804,130.5099945068359400,19.9340991973876950,36.6347999572753900,243.7897949218750000,106.5832977294921900,19.9298896789550780,30.2611598968505860,57,115,78,85,60,9105,2148116233,2149716297,2151211968,2147811748,2147593289,2148654070,2149723821,2148373842,1611,7,12,14910
1349282305,5800,126.8199996948242200,19.9246997833251950,36.6231002807617200,245.6876068115234400,106.7314987182617200,19.9253501892089840,30.1774406433105470,66,114,75,84,62,9098,2148246500,2150010468,2151697261,2147814445,2147645897,2148809197,2149954669,2148390418,1351,7,12,2308
1349282408,5803,123.1200027465820300,20.0428009033203120,36.6285018920898440,247.2209014892578000,103.1575012207031200,20.0347309112548830,30.0627803802490230,71,118,77,85,61,9091,2148398454,2150331392,2152206601,2147823094,2147706925,2148954532,2150176265,2148405010,1037,7,12,2470
1349282519,5801,118.5400009155273400,20.1229000091552730,36.6363983154296900,247.5081939697265600,100.5674972534179700,20.1140193939209000,30.0165500640869140,73,122,77,85,63,9080,2148689060,2150907236,2153109705,2147836041,2147812598,2149224073,2150559954,2148436763,469,7,12,61339
1349282598,5802,114.7500000000000000,20.2336006164550780,36.6456985473632800,246.6161041259765600,96.7481384277343800,20.2309894561767580,30.0070705413818360,80,122,77,85,62,9063,2148986733,2151470966,2153919094,2147851968,2147931145,2149442340,2150870793,2148463634,3421,7,13,12237
1349282689,5805,110.3899993896484400,20.4081993103027340,36.6590995788574200,245.4360961914062500,91.3287887573242200,20.3970394134521500,29.9902591705322270,90,129,76,86,63,9056,2149465728,2152343414,2155221741,2147879524,2148110025,2149798500,2151381952,2148516681,215,7,13,3348
1349282768,5805,106.6200027465820300,20.5062007904052730,36.6637001037597660,245.3103027343750000,88.1085891723632800,20.4957504272460940,29.9544792175292970,100,134,78,86,62,9044,2150010761,2153355053,2156657938,2147906477,2148303259,2150154523,2151897554,2148563876,41,7,12,65379
1349282850,5803,102.6100006103515600,20.5622997283935550,36.6655998229980500,245.5657958984375000,86.2113571166992200,20.5539302825927730,29.9186897277832030,99,133,77,86,61,9048,2150810221,2154776896,2158656932,2147954194,2148559826,2150645421,2152596169,2148633060,3580,7,12,20094
1349282941,5805,98.4899978637695300,20.6979007720947270,36.6664009094238300,246.3809967041015600,81.9215393066406200,20.6855201721191400,29.8275203704834000,108,134,76,87,62,9034,2151858294,2156525604,2160948169,2148015332,2148896493,2151218523,2153377910,2148714313,3585,7,12,47198
1349282996,5806,96.4400024414062500,20.7654991149902340,36.6698989868164060,247.0054931640625000,79.5435867309570300,20.7584991455078120,29.7694396972656250,114,133,77,87,62,9025,2152544704,2157659785,2162381568,2148048841,2149100763,2151532379,2153796160,2148759003,3398,6,12,9581
1349283051,5808,94.7799987792968800,20.8141994476318360,36.6703987121582000,247.5765075683593800,78.0067062377929700,20.8056697845459000,29.7245903015136720,113,135,78,87,63,9021,2153266157,2158813211,2163810779,2148086070,2149302436,2151865444,2154254555,2148806189,2691,7,13,9924
1349283106,5803,93.3499984741211000,20.8964004516601560,36.6669006347656250,248.5964965820312500,75.4024734497070300,20.8856296539306640,29.6464691162109380,119,137,77,89,62,9041,2153962541,2159913874,2165089325,2148114148,2149521901,2152183222,2154656640,2148851392,2493,7,12,6617
1349283197,5804,90.7699966430664000,21.1298007965087900,36.6822013854980500,246.9282073974609400,68.0500869750976600,21.1115207672119140,29.6264095306396500,121,133,77,89,62,9045,2155853988,2162945243,2168622875,2148200237,2150142528,2153134802,2155879515,2148988690,2072,7,12,32179
1349283252,5806,88.6399993896484400,21.1704998016357420,36.6576995849609400,249.4810943603515600,66.0411529541015600,21.1732807159423830,29.4889793395996100,129,132,77,86,62,9023,2157429302,2165231323,2170921234,2148269476,2150646875,2153872265,2156714038,2149088301,1935,7,12,11748
1349283307,5802,86.3399963378906200,21.3467006683349600,36.6665992736816400,256.5549011230469000,60.4009094238281250,21.3467693328857420,29.1148109436035160,82,126,78,86,59,9046,2159357037,2168022473,2174057280,2148374226,2151291474,2154878710,2157870555,2149213732,1656,7,12,17792
1349283362,5801,84.1299972534179700,21.5307006835937500,36.6901016235351560,260.4182128906250000,55.0512809753418000,21.5114307403564450,28.8868103027343750,84,126,77,86,60,9046,2161167469,2170485933,2176572662,2148468096,2152046089,2156052196,2159154432,2149352731,1133,7,12,41355
1349283417,5806,81.9499969482421900,21.6063003540039060,36.6969985961914060,260.4124145507812500,52.5023117065429700,21.5899391174316400,28.8551597595214840,85,123,77,86,61,9049,2163337481,2173521508,2179839533,2148611529,2152854162,2157286390,2160501549,2149506185,821,7,12,757
1349283496,5805,78.4499969482421900,21.6762008666992200,36.6950988769531250,259.8789978027344000,49.8399391174316400,21.6719703674316400,28.8438396453857420,80,126,77,86,60,9054,2167824320,2179077458,2185053942,2148884068,2154500077,2159617106,2162924361,2149790052,637,7,12,56904
1349283551,5805,75.5800018310546900,21.7614002227783200,36.6851005554199200,258.4068908691406000,47.1156082153320300,21.7559394836425780,28.8709602355957030,76,130,78,87,60,9049,2172298550,2184486235,2190098322,2149129764,2156219538,2161991881,2165294491,2150061778,333,7,12,23944
1349283606,5804,73.0699996948242200,21.9493007659912100,36.6772994995117200,257.8131103515625000,41.2291107177734400,21.9375000000000000,28.8223705291748050,74,130,77,87,60,9037,2176801828,2189593408,2194583945,2149390153,2158088210,2164462262,2167612059,2150344018,423,7,12,10795
1349283661,5804,71.0000000000000000,22.1903991699218750,36.6635017395019500,262.7499084472656000,33.9365310668945300,22.1626491546630860,28.5286407470703120,72,134,79,89,58,9029,2181224740,2194677348,2199312256,2149674322,2160285504,2167362532,2170423149,2150666605,642,7,12,3237
1349283728,5805,69.2600021362304700,22.3794994354248050,36.6548995971679700,265.2608947753906000,27.7640399932861330,22.3534297943115230,28.3511695861816400,72,131,78,88,61,9025,2185019730,2198844068,2203017005,2149909787,2162215680,2169697444,2172377142,2150892946,676,7,12,299
1349283819,5802,66.9000015258789000,22.7089996337890620,36.7004013061523440,269.7643127441406000,17.0027408599853500,22.6865005493164060,28.0402507781982420,68,131,78,88,58,9030,2191322432,2205316982,2208228224,2150334820,2165768658,2173882020,2175909522,2151293696,291,7,12,23864
1349283874,5805,64.8799972534179700,22.8341007232666000,36.7154006958007800,273.2959899902344000,12.5326404571533200,22.8250408172607420,27.8482704162597660,67,132,77,88,58,9021,2196414016,2210786532,2213266368,2150764041,2168904493,2177588608,2179129353,2151654564,21,7,12,23459
1349283929,5803,62.8499984741210940,23.0160999298095700,36.6487998962402340,274.5499877929687500,7.0640177726745605,22.9946708679199220,27.7335300445556640,64,135,77,89,58,9009,2201956406,2215962788,2217363648,2151209426,2171659538,2180513316,2181498157,2151918253,2958,7,12,20476
1349283984,5801,61.3699989318847660,23.0393009185791000,36.6529006958007800,274.9603881835937500,5.9661631584167480,23.0287399291992200,27.7045707702636720,67,134,80,87,57,9007,2206451108,2220822756,2222406729,2151719104,2174366244,2183649901,2184553316,2152341357,1935,7,12,60412
1349284111,5804,58.3300018310546900,23.1189994812011720,36.6520996093750000,275.4601135253906000,2.2430150508880615,23.1443500518798830,27.6402702331542970,65,131,79,89,57,9022,2217217435,2231795382,2232462573,2152878473,2181775844,2191955328,2191654884,2153220059,1871,7,12,37881
1349284166,5804,56.2500000000000000,23.4652004241943360,36.6138992309570300,273.8978881835937500,-6.7428140640258790,23.4237003326416000,27.5911693572998050,64,137,79,90,56,9004,2222931090,2236911213,2236204169,2153387565,2185440758,2195489042,2194175049,2153579053,2088,8,12,12216
1349284221,5801,55.1300010681152340,23.6140003204345700,36.6279983520507800,272.9866943359375000,-11.4884796142578120,23.5714206695556640,27.5685901641845700,64,135,79,91,58,8992,2228193974,2242779995,2242515629,2154065078,2188851501,2199481737,2197818093,2153982601,1602,8,12,6948
1349284376,5803,53.5699996948242200,23.8265991210937500,36.6295013427734400,272.1557006835937500,-19.7323799133300780,23.8283691406250000,27.5009307861328120,62,133,78,89,56,8989,2232190848,2247005074,2246555154,2154658020,2192306925,2202999232,2200245147,2154386468,920,7,12,4574
1349284472,5806,51.7599983215332000,23.9209003448486330,36.5872001647949200,270.6106872558594000,-23.4266109466552730,23.9436397552490230,27.5159492492675780,61,130,81,90,57,8985,2240220726,2254652653,2252987556,2155881115,2198224886,2208992045,2204584054,2154999670,279,7,12,55954
1349284558,5803,49.8699989318847660,24.1781005859375000,36.6057014465332000,264.1848144531250000,-29.1420803070068360,24.1221694946289060,27.6985702514648440,59,135,79,88,56,8969,2248142957,2261437897,2258080914,2156863954,2203811547,2214649792,2209021622,2155636160,472,8,12,19028
1349284861,5803,47.6699981689453100,24.7397003173828120,36.5878982543945300,269.6068115234375000,-48.3232192993164060,24.7228794097900400,27.2547798156738280,57,130,79,90,57,8899,2261969947,2274234724,2268953801,2158434962,2217952905,2227899584,2217904228,2156750116,3567,8,12,37998
1349285113,5804,45.7900009155273440,25.4137992858886720,36.4949989318847660,263.7590026855469000,-70.2760925292968800,25.4135704040527340,27.2191905975341800,57,130,78,89,57,8851,2272064768,2283876653,2277631085,2159903488,2228544667,2238098249,2225065069,2157597101,3429,8,12,43052
1349286098,5804,43.8800010681152340,27.1683998107910160,36.5802993774414060,239.2451934814453000,-126.0248031616211000,27.1845092773437500,27.5601100921630860,55,127,77,88,56,8633,2279011922,2290528374,2284887762,2162118756,2245317851,2252280365,2232920603,2158473810,3155,8,12,35429
1349286209,5803,41.6800003051757800,27.0970993041992200,36.5379981994628900,239.0659027099609400,-123.6600036621093800,27.1088504791259770,27.5965995788574220,56,125,79,86,54,8600,2290796653,2301892982,2295979986,2164430884,2261319369,2267317686,2244758985,2160475026,2715,8,12,63627
1349286291,5804,39.5099983215332000,27.1291999816894530,36.5190010070800800,238.6374053955078000,-125.1981964111328100,27.1580600738525400,27.5965690612792970,54,124,78,88,52,8579,2301123894,2312200658,2307566656,2168173741,2278861229,2283578587,2256143268,2161905142,2503,8,12,2909
1349286337,5805,37.6899986267089840,27.0809001922607420,36.4926986694335940,238.7801055908203000,-123.4332962036132800,27.1016006469726560,27.6119499206542970,54,127,77,87,55,8581,2303304868,2314093083,2310051483,2170613238,2289809700,2293670400,2263233325,2162924827,2854,8,12,25551
1349286383,5801,35.7000007629394500,27.0256996154785160,36.4627990722656250,239.0390930175781200,-121.4049987792968800,27.0367603302001950,27.6252098083496100,54,125,76,88,54,8574,2283606957,2289844754,2284132132,2168130048,2278225792,2277623515,2246815040,2161250276,3010,8,12,19412
1349286429,5805,33.5999984741210940,27.0323009490966800,36.4015998840332000,238.7646026611328000,-122.5683975219726600,27.0739498138427730,27.6230506896972660,53,123,77,88,54,8554,2301491867,2308756982,2305195675,2174404105,2297419538,2294621796,2258828626,2163458395,2852,7,11,36161